CAPE
0 0 0 0 0 0 0 0 0 0 0 0 0 0 0 0 0 0 0 0 1 128 564 1335 1698 1958 2091 1994 1850 1568 1371 1002 917 735 522 398 430 456 574 907 991 719 301 130 27 11 0 0 0
0 0 0 0 0 0 0 0 0 0 0 0 0 0 0 0 0 0 0 0 52 238 662 1218 1511 1934 2035 1981 1845 1544 1364 1114 843 753 663 570 501 429 879 1085 773 449 149 62 9 0 0 0 0
0 0 0 0 0 0 0 0 0 0 0 0 0 0 0 0 0 0 0 0 173 458 709 1083 1390 1948 2044 1966 1847 1660 1496 1413 970 850 785 910 768 561 796 953 587 287 91 37 2 0 0 0 0
0 0 0 0 0 0 0 0 0 0 0 0 0 0 0 0 0 0 0 0 177 365 642 945 1380 1986 2054 1922 1766 1564 1394 1368 1281 1060 1031 1160 762 921 962 684 446 249 34 2 0 0 0 0 0
0 0 0 0 0 0 0 0 0 0 0 0 0 0 0 0 0 0 0 0 142 317 515 785 1337 1790 1967 1946 1836 1733 1621 1472 1548 1572 1394 1034 773 659 617 556 206 128 2 2 0 0 0 0 0
0 0 0 0 0 0 0 0 0 0 0 0 0 0 0 0 0 0 0 0 28 229 314 646 1158 1500 1691 1783 1772 1732 1726 1686 1814 1879 1712 1421 916 758 203 6 12 5 3 2 0 0 0 0 0
0 0 0 0 0 0 0 0 0 0 0 0 0 0 0 0 0 0 0 0 0 38 168 521 866 1064 1429 1502 1467 1440 1442 1449 1446 1720 1466 1290 1119 415 216 68 2 0 2 2 2 0 0 0 0
0 0 0 0 0 0 0 0 0 0 0 0 0 0 0 0 0 0 0 0 0 0 94 299 580 783 897 973 1156 1127 1067 1061 1135 1236 1185 1043 565 146 14 0 0 0 0 2 2 0 0 0 0
0 0 0 0 0 0 0 0 0 0 0 0 0 0 0 0 0 0 0 0 0 0 0 60 282 473 755 759 703 758 921 919 810 926 982 959 91 0 0 0 0 0 0 0 2 0 0 0 0
0 0 0 0 0 0 0 0 0 0 0 0 0 0 0 0 0 0 0 0 0 0 0 0 55 244 356 609 446 226 407 510 490 533 440 273 24 0 0 0 0 0 0 0 2 0 0 0 0
0 0 0 0 0 0 0 0 0 0 0 0 0 0 0 0 0 0 0 0 0 0 0 0 0 11 126 406 258 23 3 128 261 269 209 30 0 0 0 0 0 0 0 0 0 0 0 0 0
0 0 0 0 0 0 0 0 0 0 0 0 0 0 0 0 0 0 0 0 0 0 0 0 0 0 0 13 165 136 15 1 0 9 0 0 0 0 0 0 0 0 0 0 0 0 0 0 0
0 0 0 0 0 0 0 0 0 0 0 0 0 0 0 0 0 0 0 0 0 0 0 0 0 0 0 0 1 1 31 108 115 0 0 0 0 0 0 0 0 0 0 0 0 0 0 0 0
0 0 0 0 0 0 0 0 0 0 0 0 0 0 0 0 0 0 0 0 0 0 0 0 0 0 0 0 0 0 1 14 0 1 0 0 0 0 0 0 0 0 0 0 0 0 0 0 0
0 0 0 0 0 0 0 0 0 0 0 0 0 0 0 0 0 0 0 0 0 0 0 0 0 0 0 0 0 0 0 1 1 0 0 0 0 0 0 0 0 0 0 0 0 0 0 0 0
0 0 0 0 0 0 0 0 0 0 0 0 0 0 0 0 0 0 0 0 0 0 0 0 0 0 0 0 0 0 0 0 0 0 0 0 0 0 0 0 0 0 0 0 0 0 0 0 0
0 0 0 0 0 0 0 0 0 0 0 0 0 0 0 0 0 0 0 0 0 0 0 0 0 0 0 0 0 0 0 0 0 0 0 0 0 0 0 0 0 0 0 0 0 0 0 0 0
0 0 0 0 0 0 0 0 0 0 0 0 0 0 0 0 0 0 0 0 0 0 0 0 0 0 0 0 0 0 0 0 0 0 0 0 0 0 0 0 0 0 0 0 0 0 0 0 0
0 0 0 0 0 0 0 0 0 0 0 0 0 0 0 0 0 0 0 0 0 0 0 0 0 0 0 0 0 0 0 0 0 0 0 0 0 0 0 0 0 0 0 0 0 0 0 0 0
0 0 0 0 0 0 0 0 0 0 0 0 0 0 0 0 0 0 0 0 0 0 0 0 0 0 0 0 0 0 0 0 0 0 0 0 0 0 0 0 0 0 0 0 0 0 0 0 0
0 0 0 0 0 0 0 0 0 0 0 0 0 0 0 0 0 0 0 0 0 0 0 0 0 0 0 0 0 0 0 0 0 0 0 0 0 0 0 0 0 0 0 0 0 0 0 0 0
0 0 0 0 0 0 0 0 0 0 0 0 0 0 0 0 0 0 0 0 0 0 0 0 0 0 0 0 0 0 0 0 0 0 0 0 0 0 0 0 0 0 0 0 0 0 0 0 0
0 0 0 0 0 0 0 0 0 0 0 0 0 0 0 0 0 0 0 0 0 0 0 0 0 0 0 0 0 0 0 0 0 0 0 0 0 0 0 0 0 0 0 0 0 0 0 0 0
0 0 0 0 0 0 0 0 0 0 0 0 0 0 0 0 0 0 0 0 0 0 0 0 0 0 0 0 0 0 0 0 0 0 0 0 0 0 0 0 0 0 0 0 0 0 0 0 0
0 0 0 0 0 0 0 0 0 0 0 0 0 0 0 0 0 0 0 0 0 0 0 0 0 0 0 0 0 0 0 0 0 0 0 0 0 0 0 0 0 0 0 0 0 0 0 0 0
0 0 0 0 0 0 0 0 0 0 0 0 0 0 0 0 0 0 0 0 0 0 0 0 0 0 0 0 0 0 0 0 0 0 0 0 0 0 0 0 0 0 0 0 0 0 0 0 0
0 0 0 0 0 0 0 0 0 0 0 0 0 0 0 0 0 0 0 0 0 0 0 0 0 0 0 0 0 0 0 0 0 0 0 0 0 0 0 0 0 0 0 0 0 0 0 0 0
0 0 0 0 0 0 0 0 0 0 0 0 0 0 0 0 0 0 0 0 0 0 0 0 0 0 0 0 0 0 0 0 0 0 0 0 0 0 0 0 0 0 0 0 0 0 0 0 0
0 0 0 0 0 0 0 0 0 0 0 0 0 0 0 0 0 0 0 0 0 0 0 0 0 0 0 0 0 0 0 0 0 0 0 0 0 0 0 0 0 0 0 0 0 0 0 0 0
0 0 0 0 0 0 0 0 0 0 0 0 0 0 0 0 0 0 0 0 0 0 0 0 0 0 0 0 0 0 0 0 0 0 0 0 0 0 0 0 0 0 0 0 0 0 0 0 0
CIN
-0 -0 -0 -0 -0 -0 -0 -0 -0 -0 -0 -0 -0 -0 -0 -0 -0 -0 -0 -0 -22 -535 -320 -55 -4 -0 -0 -0 -0 -5 -19 -51 -45 -50 -62 -60 -40 -24 -7 -0 -0 -0 -10 -40 -93 -139 -0 -0 -0
-0 -0 -0 -0 -0 -0 -0 -0 -0 -0 -0 -0 -0 -0 -0 -0 -0 -0 -0 -0 -680 -510 -294 -117 -24 -0 -0 -0 -0 -1 -7 -17 -31 -36 -41 -39 -30 -26 -0 -0 -0 -2 -41 -71 -144 -0 -0 -0 -0
-0 -0 -0 -0 -0 -0 -0 -0 -0 -0 -0 -0 -0 -0 -0 -0 -0 -0 -0 -0 -583 -411 -298 -166 -67 -0 -0 -0 -0 -0 -0 -0 -16 -17 -15 -4 -4 -6 -0 -0 -0 -21 -72 -97 -19 -0 -0 -0 -0
-0 -0 -0 -0 -0 -0 -0 -0 -0 -0 -0 -0 -0 -0 -0 -0 -0 -0 -0 -0 -567 -435 -317 -212 -90 -2 -0 -0 -0 -2 -4 -0 -0 -0 -0 -0 -3 -0 -0 -1 -14 -60 -157 -0 -0 -0 -0 -0 -0
-0 -0 -0 -0 -0 -0 -0 -0 -0 -0 -0 -0 -0 -0 -0 -0 -0 -0 -0 -0 -585 -488 -367 -256 -98 -20 -0 -0 -0 -0 -0 -0 -0 -0 -0 -0 -3 -5 -6 -19 -138 -161 -2 -0 -0 -0 -0 -0 -0
-0 -0 -0 -0 -0 -0 -0 -0 -0 -0 -0 -0 -0 -0 -0 -0 -0 -0 -0 -0 -722 -523 -446 -267 -121 -48 -19 -3 -0 -0 -0 -0 -0 -0 -0 -1 -1 -7 -142 -184 -56 -0 -0 -0 -0 -0 -0 -0 -0
-0 -0 -0 -0 -0 -0 -0 -0 -0 -0 -0 -0 -0 -0 -0 -0 -0 -0 -0 -0 -0 -349 -503 -312 -174 -112 -24 -6 -3 -1 -1 -1 -1 -1 -2 -3 -2 -56 -125 -218 -144 -0 -0 -0 -0 -0 -0 -0 -0
-0 -0 -0 -0 -0 -0 -0 -0 -0 -0 -0 -0 -0 -0 -0 -0 -0 -0 -0 -0 -0 -0 -533 -413 -276 -180 -125 -92 -32 -21 -19 -9 -6 -3 -2 -3 -53 -168 -247 -0 -0 -0 -0 -0 -0 -0 -0 -0 -0
-0 -0 -0 -0 -0 -0 -0 -0 -0 -0 -0 -0 -0 -0 -0 -0 -0 -0 -0 -0 -0 -0 -0 -552 -391 -295 -186 -159 -157 -115 -55 -38 -46 -21 -7 -13 -202 -0 -0 -0 -0 -0 -0 -0 -0 -0 -0 -0 -0
-0 -0 -0 -0 -0 -0 -0 -0 -0 -0 -0 -0 -0 -0 -0 -0 -0 -0 -0 -0 -0 -0 -0 -0 -525 -357 -286 -178 -215 -293 -189 -133 -122 -91 -102 -167 -215 -0 -0 -0 -0 -0 -0 -0 -0 -0 -0 -0 -0
-0 -0 -0 -0 -0 -0 -0 -0 -0 -0 -0 -0 -0 -0 -0 -0 -0 -0 -0 -0 -0 -0 -0 -0 -0 -329 -393 -221 -272 -440 -54 -286 -200 -159 -165 -294 -0 -0 -0 -0 -0 -0 -0 -0 -0 -0 -0 -0 -0
-0 -0 -0 -0 -0 -0 -0 -0 -0 -0 -0 -0 -0 -0 -0 -0 -0 -0 -0 -0 -0 -0 -0 -0 -0 -0 -0 -400 -304 -309 -409 -47 -0 -277 -0 -0 -0 -0 -0 -0 -0 -0 -0 -0 -0 -0 -0 -0 -0
-0 -0 -0 -0 -0 -0 -0 -0 -0 -0 -0 -0 -0 -0 -0 -0 -0 -0 -0 -0 -0 -0 -0 -0 -0 -0 -0 -0 -0 -0 -289 -204 -163 -0 -0 -0 -0 -0 -0 -0 -0 -0 -0 -0 -0 -0 -0 -0 -0
-0 -0 -0 -0 -0 -0 -0 -0 -0 -0 -0 -0 -0 -0 -0 -0 -0 -0 -0 -0 -0 -0 -0 -0 -0 -0 -0 -0 -0 -0 -0 -72 -0 -0 -0 -0 -0 -0 -0 -0 -0 -0 -0 -0 -0 -0 -0 -0 -0
-0 -0 -0 -0 -0 -0 -0 -0 -0 -0 -0 -0 -0 -0 -0 -0 -0 -0 -0 -0 -0 -0 -0 -0 -0 -0 -0 -0 -0 -0 -0 -0 -0 -0 -0 -0 -0 -0 -0 -0 -0 -0 -0 -0 -0 -0 -0 -0 -0
-0 -0 -0 -0 -0 -0 -0 -0 -0 -0 -0 -0 -0 -0 -0 -0 -0 -0 -0 -0 -0 -0 -0 -0 -0 -0 -0 -0 -0 -0 -0 -0 -0 -0 -0 -0 -0 -0 -0 -0 -0 -0 -0 -0 -0 -0 -0 -0 -0
-0 -0 -0 -0 -0 -0 -0 -0 -0 -0 -0 -0 -0 -0 -0 -0 -0 -0 -0 -0 -0 -0 -0 -0 -0 -0 -0 -0 -0 -0 -0 -0 -0 -0 -0 -0 -22 -0 -0 -0 -0 -0 -0 -0 -0 -0 -0 -0 -0
-0 -0 -0 -0 -0 -0 -0 -0 -0 -0 -0 -0 -0 -0 -0 -0 -0 -0 -0 -0 -0 -0 -0 -0 -0 -0 -0 -0 -0 -0 -0 -0 -0 -0 -0 -0 -0 -0 -0 -0 -0 -0 -0 -0 -0 -0 -0 -0 -0
-0 -0 -0 -0 -0 -0 -0 -0 -0 -0 -0 -0 -0 -0 -0 -0 -0 -0 -0 -0 -0 -0 -0 -0 -0 -0 -0 -0 -0 -0 -0 -0 -0 -0 -0 -0 -0 -0 -0 -0 -0 -0 -0 -0 -0 -0 -0 -0 -0
-0 -0 -0 -0 -0 -0 -0 -0 -0 -0 -0 -0 -0 -0 -0 -0 -0 -0 -0 -0 -0 -0 -0 -0 -0 -0 -0 -0 -0 -0 -0 -0 -0 -0 -0 -0 -0 -0 -0 -0 -0 -0 -0 -0 -0 -0 -0 -0 -0
-0 -0 -0 -0 -0 -0 -0 -0 -0 -0 -0 -0 -0 -0 -0 -0 -0 -0 -0 -0 -0 -0 -0 -0 -0 -0 -0 -0 -0 -0 -0 -0 -0 -0 -0 -0 -0 -0 -0 -0 -0 -0 -0 -0 -0 -0 -0 -0 -0
-0 -0 -0 -0 -0 -0 -0 -0 -0 -0 -0 -0 -0 -0 -0 -0 -0 -0 -0 -0 -0 -0 -0 -0 -0 -0 -0 -0 -0 -0 -0 -0 -0 -0 -0 -0 -0 -0 -0 -0 -0 -0 -0 -0 -0 -0 -0 -0 -0
-0 -0 -0 -0 -0 -0 -0 -0 -0 -0 -0 -0 -0 -0 -0 -0 -0 -0 -0 -0 -0 -0 -0 -0 -0 -0 -0 -0 -0 -0 -0 -0 -0 -0 -0 -0 -0 -0 -0 -0 -0 -0 -0 -0 -0 -0 -0 -0 -0
-0 -0 -0 -0 -0 -0 -0 -0 -0 -0 -0 -0 -0 -0 -0 -0 -0 -0 -0 -0 -0 -0 -0 -0 -0 -0 -0 -0 -0 -0 -0 -0 -0 -0 -0 -0 -0 -0 -0 -0 -0 -0 -0 -0 -0 -0 -0 -0 -0
-0 -0 -0 -0 -0 -0 -0 -0 -0 -0 -0 -0 -0 -0 -0 -0 -0 -0 -0 -0 -0 -0 -0 -0 -0 -0 -0 -0 -0 -0 -0 -0 -0 -0 -0 -0 -0 -0 -0 -0 -0 -0 -0 -0 -0 -0 -0 -0 -0
-0 -0 -0 -0 -0 -0 -0 -0 -0 -0 -0 -0 -0 -0 -0 -0 -0 -0 -0 -0 -0 -0 -0 -0 -0 -0 -0 -0 -0 -0 -0 -0 -0 -0 -0 -0 -0 -0 -0 -0 -0 -0 -0 -0 -0 -0 -0 -0 -0
-0 -0 -0 -0 -0 -0 -0 -0 -0 -0 -0 -0 -0 -0 -0 -0 -0 -0 -0 -0 -0 -0 -0 -0 -0 -0 -0 -0 -0 -0 -0 -0 -0 -0 -0 -0 -0 -0 -0 -0 -0 -0 -0 -0 -0 -0 -0 -0 -0
-0 -0 -0 -0 -0 -0 -0 -0 -0 -0 -0 -0 -0 -0 -0 -0 -0 -0 -0 -0 -0 -0 -0 -0 -0 -0 -0 -0 -0 -0 -0 -0 -0 -0 -0 -0 -0 -0 -0 -0 -0 -0 -0 -0 -0 -0 -0 -0 -0
-0 -0 -0 -0 -0 -0 -0 -0 -0 -0 -0 -0 -0 -0 -0 -0 -0 -0 -0 -0 -0 -0 -0 -0 -0 -0 -0 -0 -0 -0 -0 -0 -0 -0 -0 -0 -0 -0 -0 -0 -0 -0 -0 -0 -0 -0 -0 -0 -0
-0 -0 -0 -0 -0 -0 -0 -0 -0 -0 -0 -0 -0 -0 -0 -0 -0 -0 -0 -0 -0 -0 -0 -0 -0 -0 -0 -0 -0 -0 -0 -0 -0 -0 -0 -0 -0 -0 -0 -0 -0 -0 -0 -0 -0 -0 -0 -0 -0
Wind_Speed
6 5 2 5 6 6 2 1 2 2 2 1 1 2 2 2 3 4 4 8 3 8 12 11 13 14 13 12 12 11 11 11 10 9 8 7 6 6 5 5 9 10 9 7 6 6 6 6 6
3 1 5 3 7 4 5 4 1 1 2 2 1 2 2 2 2 3 1 7 7 8 11 11 12 14 13 12 12 12 12 11 10 10 9 7 6 5 5 9 9 8 5 5 5 5 6 6 6
0 4 5 5 4 4 4 3 2 2 3 2 2 1 2 2 2 2 5 7 6 7 9 11 13 14 14 13 13 12 11 11 12 10 9 9 8 6 5 9 9 7 4 4 5 5 5 5 6
3 6 5 6 2 2 2 2 3 1 2 4 2 2 3 3 2 2 4 6 6 5 6 9 15 15 14 13 12 13 13 12 11 10 10 10 8 6 11 10 9 9 6 4 3 4 4 4 5
5 4 5 4 3 4 2 2 4 2 1 2 2 4 5 3 1 2 5 5 7 6 5 6 13 14 14 14 14 13 13 13 12 12 12 10 10 8 8 7 4 3 2 1 1 2 2 4 5
5 4 5 1 2 4 3 1 1 2 2 4 2 3 5 4 3 1 3 5 5 6 5 5 10 11 12 14 14 13 13 12 11 11 12 12 13 11 8 4 6 5 4 3 2 1 2 3 4
6 5 3 2 3 4 3 6 2 2 1 1 1 3 5 5 6 5 4 3 5 5 6 5 6 8 8 9 10 11 12 11 9 11 10 10 11 10 9 7 5 7 6 5 4 1 1 2 2
6 5 2 1 1 1 5 6 1 2 2 5 2 2 4 3 2 2 1 2 3 5 6 7 7 8 7 7 9 9 9 9 8 7 6 6 9 10 10 8 6 8 6 6 5 3 2 1 1
3 6 1 2 2 2 4 6 1 2 1 4 2 1 4 4 2 1 1 2 3 3 5 5 6 7 10 8 8 10 12 11 11 8 8 6 4 6 7 7 8 6 5 6 6 5 4 2 1
6 4 7 4 3 2 4 2 4 5 7 3 3 6 4 4 4 6 7 7 6 5 5 5 5 5 6 6 5 6 5 6 5 5 5 4 6 5 6 6 7 7 6 5 6 5 2 4 2
2 5 5 4 4 1 2 3 3 1 5 6 4 9 9 9 9 9 8 6 7 7 5 5 5 4 5 6 3 2 2 2 3 4 4 4 4 3 3 2 2 1 3 1 2 2 3 1 2
0 4 3 1 3 1 3 3 6 4 8 7 5 4 5 9 9 8 8 8 9 8 7 7 8 6 6 3 4 4 3 3 2 2 4 3 3 4 3 3 3 3 2 2 2 2 2 1 3
2 3 2 6 6 5 1 6 4 9 9 6 9 10 10 9 9 7 8 7 8 9 10 10 8 6 5 6 4 3 5 4 3 2 3 3 3 5 4 3 3 3 3 3 3 3 2 2 3
2 2 6 7 8 3 4 2 2 6 9 9 9 10 9 11 10 9 13 12 12 11 12 12 10 8 5 5 5 3 3 6 3 3 5 6 4 4 5 4 4 3 4 3 4 4 4 3 1
1 5 7 6 2 4 7 1 7 8 9 9 9 8 10 11 12 11 10 10 11 10 12 14 13 13 1 4 4 3 2 1 2 3 4 5 5 5 5 4 4 5 4 4 3 2 2 3 2
3 4 4 3 2 1 4 8 6 4 10 7 8 7 8 11 9 10 11 10 11 11 13 13 12 13 11 5 4 4 3 2 2 2 2 4 3 4 4 4 4 4 4 5 4 2 2 3 3
5 3 4 9 1 2 3 5 7 4 8 7 6 7 8 9 12 13 12 11 11 11 12 13 14 14 12 11 9 10 10 7 6 5 5 6 4 3 2 3 3 4 3 3 4 2 2 3 2
6 4 4 6 1 3 2 7 10 8 4 8 8 7 8 9 11 11 12 12 11 11 11 12 11 15 11 7 8 9 10 9 9 10 10 12 8 6 4 2 1 2 2 2 3 3 2 1 2
3 4 5 3 4 1 7 6 13 6 6 8 7 7 7 8 6 8 9 10 11 14 15 14 15 14 11 7 4 6 7 7 10 10 16 14 13 12 8 5 5 3 1 2 3 2 3 1 1
2 1 6 6 5 5 7 9 5 7 4 6 8 7 7 5 7 9 10 11 12 11 11 14 14 14 11 8 4 4 3 5 7 9 13 15 15 15 12 10 7 6 4 5 2 1 1 1 3
5 7 4 8 4 2 3 7 2 5 8 11 8 6 6 6 6 7 8 9 8 11 10 12 12 13 11 10 6 5 4 4 7 10 9 12 14 14 14 13 10 9 5 4 2 2 2 3 0
5 8 8 5 4 4 2 6 6 5 5 5 5 6 6 6 5 5 5 6 7 7 7 10 11 12 12 10 12 14 9 7 4 4 6 8 12 13 12 11 11 11 8 9 6 3 2 1 4
7 5 6 3 4 3 4 2 7 7 5 6 6 4 5 5 5 5 5 5 6 6 7 6 10 13 11 12 12 9 11 6 5 7 11 11 10 12 13 12 11 10 7 7 9 9 7 3 3
5 5 6 5 3 1 9 9 5 5 4 5 6 8 7 5 6 5 4 4 5 5 6 6 10 10 9 12 13 12 12 10 9 9 8 7 6 8 12 11 10 9 9 9 7 6 7 6 4
4 6 3 5 2 7 4 2 8 3 4 9 14 9 8 7 6 6 6 5 5 6 5 6 8 9 6 9 10 9 9 8 9 6 5 6 5 6 9 9 9 7 7 8 8 7 7 6 5
7 8 7 8 4 5 1 7 5 2 4 9 12 10 7 7 6 6 6 5 5 6 6 6 6 7 6 8 8 7 7 5 4 5 4 4 4 4 5 6 7 8 7 7 7 4 4 6 4
6 5 3 6 3 3 5 3 4 4 4 5 8 7 8 7 7 7 7 6 6 6 5 6 6 6 6 6 6 7 6 7 6 6 5 3 4 5 6 6 7 8 8 7 7 4 5 5 5
4 7 4 3 1 5 5 7 6 7 10 8 8 10 8 7 8 7 6 6 4 5 4 5 5 6 5 6 6 5 6 6 5 4 6 5 4 4 5 5 5 6 6 6 7 7 7 6 5
3 3 3 4 5 6 2 9 4 10 13 15 14 11 11 10 9 8 7 6 6 5 5 5 5 5 4 5 4 5 5 6 6 5 5 6 5 6 7 8 9 9 9 7 6 5 7 8 9
2 7 7 7 7 3 3 15 4 7 12 11 10 11 8 8 8 7 7 7 7 6 6 6 4 4 4 3 3 3 4 4 5 5 5 6 6 6 7 7 8 9 10 10 10 11 10 11 11
Wind_Direction
323 333 78 42 55 64 328 17 302 329 342 224 91 98 165 187 157 206 290 197 144 150 166 178 182 180 175 168 160 158 157 156 152 145 137 130 123 115 114 121 119 116 104 94 84 79 73 62 52
325 29 43 77 81 64 282 263 242 259 325 33 68 78 37 283 275 295 65 195 172 154 167 174 179 180 175 167 165 166 166 165 163 158 152 147 144 137 124 132 111 99 96 96 93 85 64 49 38
277 45 77 86 103 155 194 233 255 321 352 10 28 81 168 287 300 231 257 166 144 156 165 175 176 181 174 171 169 172 173 171 169 169 168 160 148 147 143 130 111 101 94 90 90 81 69 46 35
40 11 37 79 133 231 219 216 228 350 348 37 16 9 321 326 306 262 99 136 144 163 167 175 180 181 178 177 178 177 179 179 178 179 180 170 147 139 137 140 136 138 98 70 83 74 59 44 34
35 56 55 82 289 277 264 248 174 88 47 321 9 320 294 342 295 76 126 147 167 172 172 171 185 186 184 181 186 187 188 190 190 187 179 168 162 156 147 161 139 101 107 343 91 78 64 49 38
39 85 58 131 276 284 281 294 97 66 353 323 16 338 270 340 348 284 170 179 186 171 176 181 195 193 190 187 190 191 192 196 202 196 189 179 179 180 156 198 210 223 228 247 194 121 74 56 49
103 78 170 178 297 327 333 334 62 105 334 262 206 333 294 320 231 215 210 159 182 188 177 185 192 199 196 195 194 191 190 198 209 207 202 195 180 172 160 179 197 216 221 233 214 185 122 98 73
100 89 93 270 285 329 329 342 44 92 268 327 163 259 293 289 307 115 76 295 201 210 201 192 188 189 194 198 194 194 194 196 205 202 198 194 165 170 164 173 205 219 212 210 205 206 208 185 92
118 61 160 227 136 277 337 15 289 296 281 347 279 264 278 317 20 54 3 310 298 273 243 212 197 196 195 193 196 197 199 201 199 206 211 196 175 173 174 171 191 212 204 208 210 213 215 158 16
84 109 213 215 183 242 314 325 345 7 341 299 324 309 322 339 5 350 343 321 313 304 293 278 260 215 200 202 194 197 210 201 201 204 203 189 171 164 168 177 191 197 170 202 216 225 148 66 355
152 187 197 245 202 183 245 271 175 241 309 235 305 306 332 3 26 29 22 4 323 308 321 301 244 249 230 213 183 181 199 192 175 197 183 180 150 141 150 153 168 147 179 160 159 103 84 15 333
46 245 228 244 161 289 265 307 304 197 240 64 4 320 47 50 33 16 11 2 353 349 336 333 311 226 211 209 201 186 181 183 174 193 179 157 142 150 151 164 176 160 162 188 155 140 148 242 315
193 286 283 278 277 231 277 254 248 266 260 57 73 49 43 38 25 11 2 360 348 352 337 334 329 274 208 191 179 182 204 197 190 194 193 159 163 158 158 185 175 174 157 177 174 176 178 218 292
198 275 282 283 269 270 220 251 106 286 75 66 67 53 39 38 19 11 10 359 356 344 343 336 335 329 219 190 167 175 171 208 172 190 200 181 173 170 176 171 187 194 174 180 181 183 190 214 261
356 333 329 261 282 217 159 50 231 244 73 83 67 50 39 30 27 22 4 1 352 345 339 356 351 343 312 164 143 137 115 120 188 210 207 193 180 187 178 181 180 194 172 159 153 168 161 192 202
21 44 351 287 169 31 128 263 270 312 98 87 75 56 49 35 27 13 8 6 2 0 3 357 360 3 7 43 93 98 87 80 1 313 270 237 218 182 177 178 197 183 172 170 158 172 206 255 248
2 240 219 316 313 127 145 252 270 48 102 116 99 67 49 28 21 14 10 9 7 5 5 12 12 11 14 34 47 51 52 41 22 22 5 6 329 294 213 206 201 164 160 185 155 158 180 208 238
205 216 243 241 307 21 273 273 278 301 137 129 100 71 60 50 23 11 10 9 12 17 19 22 24 22 8 19 57 56 48 38 38 36 30 25 13 5 335 333 24 134 144 135 136 168 136 164 221
163 190 220 256 262 21 249 240 267 310 100 111 112 103 84 59 15 23 24 23 23 22 25 26 26 17 29 22 15 34 44 33 37 33 28 23 24 22 23 8 4 3 191 154 128 106 191 209 126
205 266 262 279 269 162 275 278 289 28 32 120 115 93 84 70 35 26 19 20 25 25 27 31 32 30 34 34 15 41 40 40 47 27 31 27 29 24 26 22 21 27 11 9 12 116 91 279 184
195 199 211 221 326 288 322 290 224 54 79 81 76 96 84 87 69 33 25 16 18 28 19 39 31 33 36 43 48 39 53 43 30 23 26 25 29 27 27 27 24 20 20 13 356 330 282 309 282
214 201 208 217 116 223 113 270 296 139 107 81 107 111 117 109 81 58 43 42 28 16 19 40 41 39 29 37 66 67 62 58 9 20 24 31 29 28 26 24 29 29 24 17 359 347 290 235 278
227 144 165 159 154 87 291 324 257 131 163 173 167 156 138 123 110 92 74 56 33 32 33 35 58 55 41 43 54 66 69 60 42 30 34 25 22 26 22 24 26 26 22 15 12 5 351 317 289
133 98 52 49 88 221 218 186 254 195 178 167 168 163 165 154 138 120 101 79 70 43 44 50 65 58 55 62 62 67 69 61 53 38 38 23 15 16 17 15 20 22 19 13 5 1 4 349 322
85 86 338 339 359 236 108 144 243 305 314 183 168 173 176 171 169 154 128 100 77 71 64 71 68 65 51 70 71 71 75 72 66 49 39 26 18 14 8 7 10 16 9 10 4 8 9 3 351
180 160 160 226 208 251 120 236 257 330 335 137 149 169 166 181 183 168 154 144 120 101 87 86 86 87 69 73 71 63 64 66 66 60 43 31 22 358 357 2 357 5 7 9 360 4 354 356 351
186 185 174 110 64 39 226 288 239 116 69 128 154 160 192 194 191 181 173 168 147 132 123 121 108 93 77 81 77 66 61 58 49 38 36 22 355 358 356 354 353 353 356 355 356 348 343 345 330
154 160 91 356 242 247 271 266 227 210 195 190 187 201 200 205 202 186 180 174 160 150 130 109 106 105 100 91 84 81 66 58 51 41 28 12 346 348 345 343 340 338 340 340 342 341 334 334 326
127 200 89 143 153 189 260 260 236 204 176 190 204 202 199 201 198 190 184 178 174 169 164 157 135 121 105 94 85 81 66 48 35 29 10 360 346 350 350 344 341 341 340 337 329 324 313 319 312
241 206 165 188 234 236 160 261 5 163 182 183 196 208 208 202 194 188 183 180 180 186 180 180 172 164 175 161 131 102 80 46 19 1 352 348 340 336 331 329 332 330 328 328 329 324 318 311 306